Location: ??????
(55.2000°N, 38.3000°E)
Time: 07:31:57
(UTC+00:00)

Cosmos 1000 Rocket - Pass Details

Date: 15 November 2025
Orbit: 952 x 992 km, 82.9° (Epoch: 14 December)

Event Time Altitude Azimuth Distance (km) Brightness Sun altitude
Exits shadow 01:28:41 84° 193° (SSW) 1,005 4.4 -29.7°
Maximum altitude 01:28:54 90° 252° (WSW) 1,001 4.4 -29.6°
Drops below altitude 10° 01:35:17 10° 11° (NNE) 2,764 7.1 -28.7°
Sets 01:37:49 0° 12° (NNE) 3,714 7.8 -28.4°
